CAPE
0 0 0 0 0 0 0 0 0 0 0 0 0 0 0 0 0 0 0 0 0 0 0 0 0 0 0 0 0 0 0 0 0 0 0 0 0 0 1 3 25 55 94 5 1 0 0 2 5 119 75 48 36 354
0 0 0 0 0 0 0 0 0 0 0 0 0 0 0 0 0 0 0 0 0 0 0 0 0 0 0 0 0 0 0 0 6 5 9 0 0 0 0 0 53 2 41 14 15 132 11 22 24 29 64 62 34 126
0 0 0 0 0 0 0 0 0 0 0 0 0 0 0 0 0 0 0 0 0 0 0 0 0 0 0 0 0 0 0 0 0 0 0 0 0 0 2 6 7 4 76 9 0 59 13 16 54 41 87 83 41 33
0 0 0 0 0 0 0 0 0 0 0 0 0 0 0 0 0 0 0 0 0 0 0 0 0 0 0 0 0 0 0 0 0 0 0 0 0 0 0 0 0 1 18 29 23 27 17 5 15 52 13 126 117 31
0 0 0 0 0 0 0 0 0 0 0 0 0 0 0 0 0 0 0 0 4 0 0 0 0 0 0 0 0 0 0 0 0 0 0 0 0 17 8 0 0 0 0 5 11 3 13 5 0 9 22 32 137 181
0 0 0 0 0 0 0 0 0 0 0 0 0 0 0 0 0 0 0 0 0 3 0 0 0 0 0 0 0 4 0 0 0 0 8 14 14 34 0 0 0 0 0 2 8 13 7 0 0 0 0 21 282 140
0 0 0 0 0 0 0 0 0 0 0 0 0 0 0 0 0 0 0 0 0 0 0 0 0 14 16 4 12 12 15 21 31 14 4 9 7 20 10 0 2 26 47 124 114 72 20 103 25 26 21 25 18 106
0 0 0 0 0 0 0 0 0 0 0 0 0 0 0 0 0 0 0 0 0 0 6 0 0 18 17 52 21 55 37 85 98 7 7 12 17 34 13 2 0 0 0 0 17 14 16 24 51 117 120 74 42 47
0 0 0 0 0 0 0 0 0 0 0 0 0 0 0 0 5 17 0 0 0 1 0 0 0 12 20 33 62 332 311 60 200 59 26 24 15 19 2 0 0 0 0 0 0 0 0 0 9 51 90 128 57 125
0 0 0 0 0 0 0 0 0 0 0 0 0 0 0 25 0 0 0 3 0 0 0 0 0 0 8 100 87 38 102 120 69 8 4 54 2 26 0 0 0 9 1 0 0 0 2 0 0 0 10 51 72 239
0 0 0 0 0 0 0 0 0 0 0 0 0 0 13 0 2 19 37 4 3 0 0 8 6 20 204 79 52 45 32 51 28 0 0 0 0 0 0 15 19 10 11 7 1 0 0 9 4 0 0 0 12 48
0 0 0 0 0 0 0 0 0 0 0 0 0 0 3 13 13 2 18 17 3 16 59 70 90 93 138 123 58 12 0 7 0 19 0 0 0 0 0 1 0 9 6 6 0 0 0 9 19 30 9 10 11 16
0 0 0 0 0 0 0 0 0 0 0 2 0 0 0 7 0 0 3 49 93 29 120 26 33 139 111 0 0 0 0 0 0 0 0 0 0 0 9 0 4 1 17 27 23 15 20 23 76 123 62 129 180 75
0 0 0 0 0 0 0 0 0 0 0 0 0 0 0 0 0 0 11 50 38 45 54 59 73 117 27 23 19 0 1 0 0 0 0 0 0 0 15 56 5 3 25 15 27 42 67 83 139 244 236 239 251 228
0 0 0 0 0 0 0 0 0 0 0 0 0 0 0 0 1 35 47 35 23 42 38 42 201 191 103 16 7 9 0 0 0 0 0 0 24 58 80 42 2 47 54 55 96 78 87 102 98 124 177 255 349 334
0 0 0 0 0 0 0 0 0 0 0 0 0 0 0 2 38 40 46 37 42 51 36 118 88 71 35 17 13 1 30 0 0 0 0 17 38 76 70 57 1 21 34 89 78 82 78 101 77 64 82 97 106 155
12 1 0 0 0 0 0 0 0 0 0 0 0 0 0 0 0 5 53 53 57 49 31 37 27 41 120 8 11 50 0 2 27 20 27 43 106 76 48 1 13 3 0 5 8 69 67 6 15 17 9 9 2 35
0 0 0 0 0 0 0 0 0 0 0 0 0 0 0 7 37 41 57 77 85 49 28 29 46 18 56 29 26 95 72 73 1 31 97 152 112 36 26 0 6 0 3 3 14 39 66 42 16 0 6 4 141 123
5 3 0 1 1 0 0 0 0 0 0 0 0 3 30 42 87 50 55 65 104 114 70 49 29 38 45 114 51 242 189 60 52 64 42 116 66 10 1 0 7 8 41 15 29 17 0 7 3 3 2 2 46 70
1 8 3 0 0 0 0 0 19 0 0 1 3 6 36 16 10 9 22 34 58 106 67 39 6 55 138 215 438 623 225 63 49 99 35 28 62 48 8 0 0 3 11 45 4 1 2 3 0 1 0 0 3 36
0 2 0 0 0 0 0 0 0 0 0 0 4 22 19 24 22 22 41 56 92 34 10 46 52 222 498 878 967 811 432 86 64 192 141 98 85 77 58 36 0 0 0 0 0 0 3 0 0 1 0 0 0 1
1 1 0 0 0 0 0 0 0 0 8 1 0 12 24 35 33 43 65 58 61 129 512 410 803 739 488 679 771 319 411 658 138 134 68 69 97 72 57 76 27 3 10 9 2 7 3 10 1 0 0 0 0 0
0 2 2 0 0 0 0 0 0 0 0 2 8 11 48 68 233 96 314 299 521 458 456 676 714 1011 950 466 263 138 52 187 390 94 52 140 129 126 94 79 77 29 4 5 0 0 0 0 0 0 0 0 0 0
1 0 0 0 0 0 0 0 0 0 6 13 28 35 73 276 418 496 296 538 304 356 481 535 702 788 335 299 13 118 561 233 137 68 34 227 88 86 34 0 0 33 76 52 26 4 0 0 0 0 0 0 0 0
0 0 0 0 0 0 0 0 0 0 0 29 43 117 352 295 244 194 279 303 293 120 261 576 584 495 257 540 177 76 76 63 42 70 68 68 15 33 8 0 0 0 0 1 0 2 17 0 0 0 0 0 0 0
0 0 0 0 0 0 0 0 0 0 15 23 100 420 504 191 33 46 206 240 114 259 163 272 375 387 398 368 16 64 56 68 69 46 46 17 10 7 3 0 0 0 0 0 0 0 0 0 0 0 0 0 0 0
0 0 0 0 0 0 0 0 29 23 57 91 234 313 193 31 5 251 309 71 45 152 331 88 118 175 38 79 141 118 178 87 79 34 4 9 0 0 0 0 0 0 0 0 0 0 0 0 0 0 0 0 0 0
0 0 0 0 0 0 0 34 38 57 154 455 457 99 73 96 75 108 28 95 264 101 42 42 84 54 65 74 35 75 49 92 66 37 27 21 0 0 0 0 0 0 0 0 0 0 0 0 0 0 0 0 0 0
0 0 0 0 0 0 2 20 22 305 421 139 53 58 60 57 149 129 102 37 21 0 0 5 117 125 118 92 22 9 68 48 28 36 14 13 15 4 0 0 0 0 0 0 0 0 0 0 0 0 0 0 0 0
0 0 0 0 0 0 53 38 63 94 131 70 17 61 184 130 23 11 14 11 4 3 6 2 13 54 57 53 14 16 13 0 0 0 7 1 1 0 0 2 1 0 0 0 0 0 0 0 0 0 0 0 0 0
0 61 0 40 15 21 37 34 34 69 88 23 23 32 63 31 9 28 12 18 0 0 0 1 9 24 3 48 65 86 0 0 0 0 0 0 0 0 0 3 0 0 0 0 0 0 0 0 0 0 0 0 0 0
2 6 37 37 38 63 95 39 37 19 9 29 74 99 36 0 0 0 0 0 0 0 2 6 0 26 27 71 26 0 0 0 0 0 0 0 0 0 0 0 0 0 0 0 0 0 0 0 0 0 0 0 0 0
35 48 40 15 16 37 73 77 51 41 121 90 27 0 0 0 0 0 2 13 5 45 61 36 16 27 18 5 5 0 0 0 0 0 0 0 0 0 0 0 0 0 0 0 0 0 0 0 0 0 0 0 0 0
CIN
0 0 0 0 0 0 0 0 0 0 0 0 0 0 0 0 0 0 0 0 0 0 0 0 0 0 0 0 0 0 0 0 0 0 0 0 0 -2 -4 -15 -18 -11 -11 -2 -1 0 0 -2 -25 -56 -113 -105 -52 -32
0 0 0 0 0 0 0 0 0 0 0 0 0 0 0 0 0 0 0 0 0 0 0 0 0 0 0 0 0 0 0 0 -7 0 -1 0 0 0 -2 0 -45 -3 -26 -8 -21 -5 -36 -139 -161 -18 -111 -148 -31 -26
0 0 0 0 0 0 0 0 0 0 0 0 0 0 0 0 0 0 0 0 0 0 0 0 0 0 0 0 0 0 0 0 0 0 0 0 0 0 -8 -15 -18 -13 -32 -11 -1 -47 -53 -11 -25 -29 -148 -130 -203 -28
0 0 0 0 0 0 0 0 0 0 0 0 0 0 0 0 0 0 0 0 0 0 0 0 0 0 0 0 0 0 0 0 0 0 0 0 0 0 0 0 0 -1 -5 -35 -69 -46 -44 -80 -85 -55 -73 -90 -158 -169
0 0 0 0 0 0 0 0 0 0 0 0 0 0 0 0 0 0 0 0 -8 0 0 0 0 0 0 0 0 0 0 0 0 0 0 0 0 -12 -17 0 0 0 0 -25 -22 -17 -59 -15 0 -15 -41 -41 -85 -161
0 0 0 0 0 0 0 0 0 0 0 0 0 0 0 0 0 0 0 -1 -1 -4 0 0 0 0 0 0 0 -12 0 0 0 0 -5 -6 -3 -15 -2 0 0 0 0 -42 -27 -22 -18 0 0 0 0 -40 -63 -121
0 0 0 0 0 0 0 0 0 0 0 0 0 0 0 0 0 0 0 0 0 0 0 0 0 -6 -2 -1 -19 -35 -35 -44 -28 -27 -21 -17 -20 -45 -9 -2 -9 -48 -50 -46 -35 -22 -24 -22 -34 -41 -55 -40 -40 -48
0 0 0 0 0 0 0 0 0 0 0 0 0 0 0 0 0 0 0 0 0 0 -1 0 0 -15 -1 -16 -28 -26 -26 -20 -24 -12 -28 -29 -17 -33 -13 -32 0 0 0 0 -18 -37 -47 -26 -38 -36 -33 -7 -28 -34
0 0 0 0 0 0 0 0 0 0 0 0 0 0 0 0 -3 -7 0 0 0 -2 0 0 0 -4 -22 -34 -32 -35 -38 -9 -30 -8 -14 -3 -7 -18 -26 0 0 0 0 0 0 0 0 0 -59 -47 -51 -30 -27 -99
0 0 0 0 0 0 0 0 0 0 0 0 0 0 0 -6 0 0 0 0 0 0 0 0 0 -1 -2 -21 -20 -34 -15 -5 -4 -12 -20 -6 -2 -65 0 0 0 0 0 0 0 0 0 0 0 0 -48 -47 -44 -19
0 0 0 0 0 0 0 0 0 0 0 0 0 0 -6 0 -6 -4 -1 0 -15 0 0 -10 0 0 -20 -8 -2 -13 -5 -9 -1 0 0 0 0 0 0 0 0 -1 0 0 -1 0 0 -3 -2 0 0 0 -34 -30
0 0 0 0 0 0 0 0 0 0 0 0 0 0 -15 -3 -6 0 -1 -11 -8 -5 -11 -8 -12 -26 -24 -10 -4 -2 0 -1 0 -4 0 0 0 0 0 0 0 0 -1 0 0 0 0 -11 -10 -2 -4 -31 -55 -58
0 0 0 0 0 0 0 0 0 0 0 -3 0 0 0 -4 0 0 0 -2 -2 -7 -7 -36 -12 -30 -8 0 0 0 0 0 0 0 0 0 0 0 0 0 0 0 -2 -4 -1 0 -4 -2 -2 -4 -9 -17 -11 -33
0 0 0 0 0 0 0 0 0 0 0 0 0 0 0 0 0 0 -6 -4 -9 -9 -5 -11 -5 -14 -14 -3 -5 0 0 0 0 0 0 0 0 0 -1 -5 0 0 -1 0 -10 0 0 -2 -3 -6 -10 -23 -24 -26
0 0 0 0 0 0 0 0 0 0 0 0 0 0 0 0 -9 -3 -1 -4 -6 -3 -11 -16 -29 -15 -3 -1 -2 0 0 0 0 0 0 0 0 0 0 -1 -1 0 0 -1 0 0 0 -5 -14 -26 -29 -31 -26 -16
0 0 0 0 0 0 0 0 0 0 0 0 0 0 0 -3 -2 -1 -2 -2 -8 -9 -22 -18 -9 -7 -2 -2 -1 0 0 0 0 0 0 0 -7 0 0 0 -2 0 0 0 0 0 -1 -17 -16 -6 -19 -26 -33 -27
0 0 0 0 0 0 0 0 0 0 0 0 0 0 0 0 0 -4 -3 -4 -34 -5 -5 -3 -1 0 -4 -2 -1 -12 0 0 -17 -3 -9 -6 0 0 -1 0 0 -2 -2 0 0 -4 0 -6 -2 0 0 -29 -5 -43
0 -1 0 0 0 0 0 0 0 0 0 0 0 0 0 -9 -5 -4 -6 -11 -5 -14 -13 -2 -9 -1 -4 -1 -5 -12 -28 -38 -5 -45 -22 -2 -5 -4 -1 0 0 0 0 0 -3 0 0 0 0 0 0 0 0 -3
-1 -3 0 -6 -2 0 0 0 0 0 0 0 0 -3 -4 -9 -20 -27 -11 -15 -15 -6 -5 -17 -4 -5 -18 -32 -12 -12 -19 -73 -33 -35 -48 -16 -15 -5 0 0 0 -1 0 -1 0 0 0 0 0 0 0 0 0 0
0 -1 -4 -1 0 0 0 0 -4 0 0 -5 -6 -5 -2 -10 -15 -12 -11 -18 -38 -8 -3 -5 -6 -5 -5 -29 -31 -15 -40 -82 -56 -23 -48 -43 -24 -19 -14 0 0 0 -1 -2 -3 -2 0 -3 0 0 0 0 0 0
0 0 0 0 0 0 0 0 0 0 0 0 -3 -2 0 -2 -7 -7 -4 -22 -10 -3 -12 -11 -15 -19 -20 -13 -18 -19 -30 -68 -78 -21 -20 -38 -40 -44 -46 -56 0 0 0 0 0 0 0 0 0 -1 0 0 0 0
0 0 0 0 0 0 0 0 0 0 0 0 0 -7 -2 0 -10 -26 -27 -4 -8 -11 -16 -27 -17 -17 -24 -24 -20 -35 -62 -26 -59 -66 -45 -38 -44 -35 -38 -51 -74 -77 -67 -30 0 -2 -2 0 -5 0 0 0 0 0
0 0 0 0 0 0 0 0 0 0 0 -2 -5 -5 -5 -7 -7 -40 -3 -6 -17 -31 -17 -9 -8 -1 -4 -44 -28 -12 -30 -79 -50 -45 -37 -43 -63 -47 -33 -56 -33 -76 -48 -93 0 0 0 0 0 0 0 0 0 0
0 0 0 0 0 0 0 0 0 0 -2 -1 0 -3 -2 -6 -6 -2 -1 -3 -20 -8 -3 -1 -2 0 -35 -38 0 -78 -48 -43 -59 -38 -55 -35 -48 -84 -31 -2 -2 -10 -50 -63 -68 -64 0 0 0 0 0 0 0 0
0 0 0 0 0 0 0 0 0 0 0 -1 -2 0 -1 -2 -1 0 -1 -3 -12 -19 -2 -5 -8 -6 -21 -23 -42 -43 -60 -35 -24 -22 -53 -29 -4 -8 -23 0 0 0 0 -31 0 -10 -29 0 0 0 0 0 0 0
0 0 0 0 0 0 0 0 0 0 -3 -7 -2 -2 -5 -2 -1 0 -4 -5 -3 -5 -2 -1 0 -7 -18 -31 -31 -62 -37 -38 -58 -16 -29 -39 -41 -20 -23 0 0 0 0 0 0 0 0 0 0 0 0 0 0 0
0 0 0 0 0 0 0 0 -1 -3 -6 -4 -2 -1 0 0 0 -1 -12 -22 -13 -4 -3 -30 -37 -42 -88 -91 -54 -53 -33 -29 -14 -17 -35 -57 0 0 0 0 0 0 0 0 0 0 0 0 0 0 0 0 0 0
0 0 0 0 0 0 0 0 -3 -4 -2 -5 -4 -5 -2 -4 -9 -11 -18 -9 -11 -35 -24 -36 -51 -90 -52 -29 -27 -45 -58 -14 -11 -36 -27 -34 -3 0 0 0 0 0 0 0 0 0 0 0 0 0 0 0 0 0
0 0 0 0 0 0 0 0 0 -4 -5 -6 0 -4 -2 -2 -4 -8 -10 -29 -15 0 0 -25 -18 -51 -47 -33 -6 -25 -51 -17 -8 -10 -7 -18 -24 -25 0 0 0 0 0 0 0 0 0 0 0 0 0 0 0 0
0 0 0 0 0 0 -1 -10 -8 -2 -3 -8 -17 -8 -26 -23 -42 -49 -26 -24 -1 -1 0 -38 -45 -38 -7 -2 -28 -80 -30 0 0 0 -5 -10 -9 0 -5 -14 -12 0 0 0 0 0 0 0 0 0 0 0 0 0
0 -2 0 -1 0 -1 0 0 -5 -6 -2 0 -2 -2 -13 -35 -43 -37 -23 -23 0 0 0 0 -23 -62 -10 -39 -21 -29 0 0 0 0 0 0 0 0 0 -26 0 0 0 0 0 0 0 0 0 0 0 0 0 0
-1 -4 -6 -2 0 -2 -4 -1 -1 -3 -6 -9 -7 -16 -17 0 0 0 0 0 0 0 0 0 0 -9 -26 -32 -11 -1 0 0 0 0 0 0 0 0 0 0 0 0 0 0 0 0 0 0 0 0 0 0 0 0
-4 0 -2 -1 -2 -8 -2 -2 -2 -4 -16 -20 -10 0 0 0 0 0 -1 -47 -19 -63 -61 -27 -2 -1 -11 -8 -11 0 0 0 0 0 0 0 0 0 0 0 0 0 0 0 0 0 0 0 0 0 0 0 0 0
Wind_Speed
nan nan nan nan nan nan nan nan nan nan nan nan nan nan nan nan nan nan nan nan nan nan nan nan nan nan nan nan nan nan nan nan nan nan nan nan nan nan nan nan nan nan nan nan nan nan nan nan nan 48 nan nan nan 54
nan nan nan nan nan nan nan nan nan nan nan nan nan nan nan nan nan nan nan nan nan nan nan nan nan nan nan nan nan nan nan nan nan nan nan nan nan nan nan nan nan nan nan nan nan 40 nan nan nan nan nan nan nan 49
nan nan nan nan nan nan nan nan nan nan nan nan nan nan nan nan nan nan nan nan nan nan nan nan nan nan nan nan nan nan nan nan nan nan nan nan nan nan nan nan nan nan nan nan nan nan nan nan nan nan nan nan nan nan
nan nan nan nan nan nan nan nan nan nan nan nan nan nan nan nan nan nan nan nan nan nan nan nan nan nan nan nan nan nan nan nan nan nan nan nan nan nan nan nan nan nan nan nan nan nan nan nan nan nan nan 51 51 nan
nan nan nan nan nan nan nan nan nan nan nan nan nan nan nan nan nan nan nan nan nan nan nan nan nan nan nan nan nan nan nan nan nan nan nan nan nan nan nan nan nan nan nan nan nan nan nan nan nan nan nan nan 46 50
nan nan nan nan nan nan nan nan nan nan nan nan nan nan nan nan nan nan nan nan nan nan nan nan nan nan nan nan nan nan nan nan nan nan nan nan nan nan nan nan nan nan nan nan nan nan nan nan nan nan nan nan 38 39
nan nan nan nan nan nan nan nan nan nan nan nan nan nan nan nan nan nan nan nan nan nan nan nan nan nan nan nan nan nan nan nan nan nan nan nan nan nan nan nan nan nan nan 20 21 nan nan 28 nan nan nan nan nan 40
nan nan nan nan nan nan nan nan nan nan nan nan nan nan nan nan nan nan nan nan nan nan nan nan nan nan nan nan nan nan nan nan nan nan nan nan nan nan nan nan nan nan nan nan nan nan nan nan nan 21 27 nan nan nan
nan nan nan nan nan nan nan nan nan nan nan nan nan nan nan nan nan nan nan nan nan nan nan nan nan nan nan nan nan 7 9 nan 4 nan nan nan nan nan nan nan nan nan nan nan nan nan nan nan nan nan nan 16 nan 26
nan nan nan nan nan nan nan nan nan nan nan nan nan nan nan nan nan nan nan nan nan nan nan nan nan nan nan 11 nan nan 12 7 nan nan nan nan nan nan nan nan nan nan nan nan nan nan nan nan nan nan nan nan nan 17
nan nan nan nan nan nan nan nan nan nan nan nan nan nan nan nan nan nan nan nan nan nan nan nan nan nan 10 nan nan nan nan nan nan nan nan nan nan nan nan nan nan nan nan nan nan nan nan nan nan nan nan nan nan nan
nan nan nan nan nan nan nan nan nan nan nan nan nan nan nan nan nan nan nan nan nan nan nan nan nan nan 9 13 nan nan nan nan nan nan nan nan nan nan nan nan nan nan nan nan nan nan nan nan nan nan nan nan nan nan
nan nan nan nan nan nan nan nan nan nan nan nan nan nan nan nan nan nan nan nan nan nan 6 nan nan 9 8 nan nan nan nan nan nan nan nan nan nan nan nan nan nan nan nan nan nan nan nan nan nan 3 nan 3 4 nan
nan nan nan nan nan nan nan nan nan nan nan nan nan nan nan nan nan nan nan nan nan nan nan nan nan 4 nan nan nan nan nan nan nan nan nan nan nan nan nan nan nan nan nan nan nan nan nan nan 4 2 3 6 8 7
nan nan nan nan nan nan nan nan nan nan nan nan nan nan nan nan nan nan nan nan nan nan nan nan 8 6 7 nan nan nan nan nan nan nan nan nan nan nan nan nan nan nan nan nan nan nan nan 12 nan 4 7 9 8 6
nan nan nan nan nan nan nan nan nan nan nan nan nan nan nan nan nan nan nan nan nan nan nan 7 nan nan nan nan nan nan nan nan nan nan nan nan nan nan nan nan nan nan nan nan nan nan nan 8 nan nan nan nan 3 8
nan nan nan nan nan nan nan nan nan nan nan nan nan nan nan nan nan nan nan nan nan nan nan nan nan nan 2 nan nan nan nan nan nan nan nan nan 15 nan nan nan nan nan nan nan nan nan nan nan nan nan nan nan nan nan
nan nan nan nan nan nan nan nan nan nan nan nan nan nan nan nan nan nan nan nan nan nan nan nan nan nan nan nan nan nan nan nan nan nan nan 13 15 nan nan nan nan nan nan nan nan nan nan nan nan nan nan nan 4 5
nan nan nan nan nan nan nan nan nan nan nan nan nan nan nan nan nan nan nan nan 13 12 nan nan nan nan nan 4 nan 5 5 nan nan nan nan 12 nan nan nan nan nan nan nan nan nan nan nan nan nan nan nan nan nan nan
nan nan nan nan nan nan nan nan nan nan nan nan nan nan nan nan nan nan nan nan nan 12 nan nan nan nan 7 8 7 7 5 nan nan nan nan nan nan nan nan nan nan nan nan nan nan nan nan nan nan nan nan nan nan nan
nan nan nan nan nan nan nan nan nan nan nan nan nan nan nan nan nan nan nan nan nan nan nan nan nan 12 16 12 10 6 6 nan nan 12 13 nan nan nan nan nan nan nan nan nan nan nan nan nan nan nan nan nan nan nan
nan nan nan nan nan nan nan nan nan nan nan nan nan nan nan nan nan nan nan nan nan 9 14 16 17 18 14 14 10 6 5 4 8 10 nan nan nan nan nan nan nan nan nan nan nan nan nan nan nan nan nan nan nan nan
nan nan nan nan nan nan nan nan nan nan nan nan nan nan nan nan 7 nan 10 11 15 14 16 18 15 15 16 12 6 3 nan 7 8 nan nan 9 11 12 nan nan nan nan nan nan nan nan nan nan nan nan nan nan nan nan
nan nan nan nan nan nan nan nan nan nan nan nan nan nan nan 8 9 10 11 12 10 14 17 16 16 15 15 13 nan 3 2 9 8 nan nan 7 nan nan nan nan nan nan nan nan nan nan nan nan nan nan nan nan nan nan
nan nan nan nan nan nan nan nan nan nan nan nan nan 9 10 13 12 10 12 12 11 11 15 14 14 13 16 12 9 nan nan nan nan nan nan nan nan nan nan nan nan nan nan nan nan nan nan nan nan nan nan nan nan nan
nan nan nan nan nan nan nan nan nan nan nan nan 10 12 13 11 nan nan 14 14 14 14 14 14 14 18 18 16 nan nan nan nan nan nan nan nan nan nan nan nan nan nan nan nan nan nan nan nan nan nan nan nan nan nan
nan nan nan nan nan nan nan nan nan nan nan nan 12 10 11 nan nan 13 16 nan nan 16 14 nan 12 13 nan nan 13 8 6 nan nan nan nan nan nan nan nan nan nan nan nan nan nan nan nan nan nan nan nan nan nan nan
nan nan nan nan nan nan nan nan nan nan 12 14 13 nan nan nan nan 11 nan nan 16 15 nan nan nan nan nan nan nan nan nan nan nan nan nan nan nan nan nan nan nan nan nan nan nan nan nan nan nan nan nan nan nan nan
nan nan nan nan nan nan nan nan nan 14 14 13 nan nan nan nan 18 16 17 nan nan nan nan nan 10 10 10 nan nan nan nan nan nan nan nan nan nan nan nan nan nan nan nan nan nan nan nan nan nan nan nan nan nan nan
nan nan nan nan nan nan nan nan nan nan 9 nan nan nan 14 13 nan nan nan nan nan nan nan nan nan nan nan nan nan nan nan nan nan nan nan nan nan nan nan nan nan nan nan nan nan nan nan nan nan nan nan nan nan nan
nan nan nan nan nan nan nan nan nan nan nan nan nan nan nan nan nan nan nan nan nan nan nan nan nan nan nan nan nan nan nan nan nan nan nan nan nan nan nan nan nan nan nan nan nan nan nan nan nan nan nan nan nan nan
nan nan nan nan nan nan nan nan nan nan nan nan nan nan nan nan nan nan nan nan nan nan nan nan nan nan nan nan nan nan nan nan nan nan nan nan nan nan nan nan nan nan nan nan nan nan nan nan nan nan nan nan nan nan
nan nan nan nan nan nan nan nan nan nan 7 nan nan nan nan nan nan nan nan nan nan nan nan nan nan nan nan nan nan nan nan nan nan nan nan nan nan nan nan nan nan nan nan nan nan nan nan nan nan nan nan nan nan nan
Wind_Direction
nan nan nan nan nan nan nan nan nan nan nan nan nan nan nan nan nan nan nan nan nan nan nan nan nan nan nan nan nan nan nan nan nan nan nan nan nan nan nan nan nan nan nan nan nan nan nan nan nan 245 nan nan nan 233
nan nan nan nan nan nan nan nan nan nan nan nan nan nan nan nan nan nan nan nan nan nan nan nan nan nan nan nan nan nan nan nan nan nan nan nan nan nan nan nan nan nan nan nan nan 252 nan nan nan nan nan nan nan 247
nan nan nan nan nan nan nan nan nan nan nan nan nan nan nan nan nan nan nan nan nan nan nan nan nan nan nan nan nan nan nan nan nan nan nan nan nan nan nan nan nan nan nan nan nan nan nan nan nan nan nan nan nan nan
nan nan nan nan nan nan nan nan nan nan nan nan nan nan nan nan nan nan nan nan nan nan nan nan nan nan nan nan nan nan nan nan nan nan nan nan nan nan nan nan nan nan nan nan nan nan nan nan nan nan nan 256 254 nan
nan nan nan nan nan nan nan nan nan nan nan nan nan nan nan nan nan nan nan nan nan nan nan nan nan nan nan nan nan nan nan nan nan nan nan nan nan nan nan nan nan nan nan nan nan nan nan nan nan nan nan nan 266 263
nan nan nan nan nan nan nan nan nan nan nan nan nan nan nan nan nan nan nan nan nan nan nan nan nan nan nan nan nan nan nan nan nan nan nan nan nan nan nan nan nan nan nan nan nan nan nan nan nan nan nan nan 274 267
nan nan nan nan nan nan nan nan nan nan nan nan nan nan nan nan nan nan nan nan nan nan nan nan nan nan nan nan nan nan nan nan nan nan nan nan nan nan nan nan nan nan nan 252 256 nan nan 255 nan nan nan nan nan 276
nan nan nan nan nan nan nan nan nan nan nan nan nan nan nan nan nan nan nan nan nan nan nan nan nan nan nan nan nan nan nan nan nan nan nan nan nan nan nan nan nan nan nan nan nan nan nan nan nan 242 242 nan nan nan
nan nan nan nan nan nan nan nan nan nan nan nan nan nan nan nan nan nan nan nan nan nan nan nan nan nan nan nan nan 320 318 nan 317 nan nan nan nan nan nan nan nan nan nan nan nan nan nan nan nan nan nan 245 nan 253
nan nan nan nan nan nan nan nan nan nan nan nan nan nan nan nan nan nan nan nan nan nan nan nan nan nan nan 335 nan nan 329 346 nan nan nan nan nan nan nan nan nan nan nan nan nan nan nan nan nan nan nan nan nan 263
nan nan nan nan nan nan nan nan nan nan nan nan nan nan nan nan nan nan nan nan nan nan nan nan nan nan 348 nan nan nan nan nan nan nan nan nan nan nan nan nan nan nan nan nan nan nan nan nan nan nan nan nan nan nan
nan nan nan nan nan nan nan nan nan nan nan nan nan nan nan nan nan nan nan nan nan nan nan nan nan nan 356 5 nan nan nan nan nan nan nan nan nan nan nan nan nan nan nan nan nan nan nan nan nan nan nan nan nan nan
nan nan nan nan nan nan nan nan nan nan nan nan nan nan nan nan nan nan nan nan nan nan 291 nan nan 330 352 nan nan nan nan nan nan nan nan nan nan nan nan nan nan nan nan nan nan nan nan nan nan 330 nan 306 312 nan
nan nan nan nan nan nan nan nan nan nan nan nan nan nan nan nan nan nan nan nan nan nan nan nan nan 306 nan nan nan nan nan nan nan nan nan nan nan nan nan nan nan nan nan nan nan nan nan nan 29 37 281 301 301 304
nan nan nan nan nan nan nan nan nan nan nan nan nan nan nan nan nan nan nan nan nan nan nan nan 276 306 334 nan nan nan nan nan nan nan nan nan nan nan nan nan nan nan nan nan nan nan nan 42 nan 325 265 266 285 294
nan nan nan nan nan nan nan nan nan nan nan nan nan nan nan nan nan nan nan nan nan nan nan 259 nan nan nan nan nan nan nan nan nan nan nan nan nan nan nan nan nan nan nan nan nan nan nan 284 nan nan nan nan 276 228
nan nan nan nan nan nan nan nan nan nan nan nan nan nan nan nan nan nan nan nan nan nan nan nan nan nan 217 nan nan nan nan nan nan nan nan nan 359 nan nan nan nan nan nan nan nan nan nan nan nan nan nan nan nan nan
nan nan nan nan nan nan nan nan nan nan nan nan nan nan nan nan nan nan nan nan nan nan nan nan nan nan nan nan nan nan nan nan nan nan nan 343 351 nan nan nan nan nan nan nan nan nan nan nan nan nan nan nan 163 230
nan nan nan nan nan nan nan nan nan nan nan nan nan nan nan nan nan nan nan nan 274 254 nan nan nan nan nan 348 nan 253 312 nan nan nan nan 344 nan nan nan nan nan nan nan nan nan nan nan nan nan nan nan nan nan nan
nan nan nan nan nan nan nan nan nan nan nan nan nan nan nan nan nan nan nan nan nan 254 nan nan nan nan 212 249 237 259 309 nan nan nan nan nan nan nan nan nan nan nan nan nan nan nan nan nan nan nan nan nan nan nan
nan nan nan nan nan nan nan nan nan nan nan nan nan nan nan nan nan nan nan nan nan nan nan nan nan 203 210 232 239 247 303 nan nan 345 350 nan nan nan nan nan nan nan nan nan nan nan nan nan nan nan nan nan nan nan
nan nan nan nan nan nan nan nan nan nan nan nan nan nan nan nan nan nan nan nan nan 238 227 219 209 200 194 215 229 281 356 355 344 344 nan nan nan nan nan nan nan nan nan nan nan nan nan nan nan nan nan nan nan nan
nan nan nan nan nan nan nan nan nan nan nan nan nan nan nan nan 236 nan 241 234 231 224 218 222 206 193 203 213 229 283 nan 357 4 nan nan 4 44 53 nan nan nan nan nan nan nan nan nan nan nan nan nan nan nan nan
nan nan nan nan nan nan nan nan nan nan nan nan nan nan nan 232 240 237 231 238 223 230 222 215 205 214 207 208 nan 244 318 335 344 nan nan 10 nan nan nan nan nan nan nan nan nan nan nan nan nan nan nan nan nan nan
nan nan nan nan nan nan nan nan nan nan nan nan nan 205 221 237 235 239 246 240 226 215 222 223 209 215 220 214 214 nan nan nan nan nan nan nan nan nan nan nan nan nan nan nan nan nan nan nan nan nan nan nan nan nan
nan nan nan nan nan nan nan nan nan nan nan nan 205 212 229 227 nan nan 246 232 227 230 226 214 207 209 213 211 nan nan nan nan nan nan nan nan nan nan nan nan nan nan nan nan nan nan nan nan nan nan nan nan nan nan
nan nan nan nan nan nan nan nan nan nan nan nan 216 232 227 nan nan 247 243 nan nan 222 226 nan 200 203 nan nan 203 225 271 nan nan nan nan nan nan nan nan nan nan nan nan nan nan nan nan nan nan nan nan nan nan nan
nan nan nan nan nan nan nan nan nan nan 197 206 212 nan nan nan nan 254 nan nan 225 215 nan nan nan nan nan nan nan nan nan nan nan nan nan nan nan nan nan nan nan nan nan nan nan nan nan nan nan nan nan nan nan nan
nan nan nan nan nan nan nan nan nan 189 201 206 nan nan nan nan 236 230 227 nan nan nan nan nan 206 197 190 nan nan nan nan nan nan nan nan nan nan nan nan nan nan nan nan nan nan nan nan nan nan nan nan nan nan nan
nan nan nan nan nan nan nan nan nan nan 194 nan nan nan 240 240 nan nan nan nan nan nan nan nan nan nan nan nan nan nan nan nan nan nan nan nan nan nan nan nan nan nan nan nan nan nan nan nan nan nan nan nan nan nan
nan nan nan nan nan nan nan nan nan nan nan nan nan nan nan nan nan nan nan nan nan nan nan nan nan nan nan nan nan nan nan nan nan nan nan nan nan nan nan nan nan nan nan nan nan nan nan nan nan nan nan nan nan nan
nan nan nan nan nan nan nan nan nan nan nan nan nan nan nan nan nan nan nan nan nan nan nan nan nan nan nan nan nan nan nan nan nan nan nan nan nan nan nan nan nan nan nan nan nan nan nan nan nan nan nan nan nan nan
nan nan nan nan nan nan nan nan nan nan 183 nan nan nan nan nan nan nan nan nan nan nan nan nan nan nan nan nan nan nan nan nan nan nan nan nan nan nan nan nan nan nan nan nan nan nan nan nan nan nan nan nan nan nan